Погода в Кукшумах

Россия / Чувашская Республика     55°52′36″N   46°20′09″E
темп.,
°C
ветер,
м/с
пор.,
м/с
влажн.,
%
обл.,
%
осадки,
мм/ч
давл.,
гПа
погр.,
м
11 мая, вт
вт1100:00+9ссв51094100 0.0 1024305
03:00+8ссв4119783 0.0 1025291
06:00+10св599285 0.0 1025296
09:00+15св577659 0.0 1026530
12:00+20всв456197 0.0 1026922
15:00+22всв4556100 0.0 10261108
18:00+20св3574100 0.1 1026136
21:00+15всв3889100 0.2 1027135
12 мая, ср
ср1200:00+13всв249579 0.9 102880
03:00+13всв369562 0.9 1027104
06:00+15всв399055 0.0 1027253
09:00+20в576656 0.0 1027582
12:00+23вюв584944 0.0 10271768
15:00+24юв584596 0.0 10262482
18:00+21юв24655 0.0 1025114
21:00+16вюв227188 0.0 102533
13 мая, чт
чт1300:00+15юв347579 0.0 102673
03:00+14вюв227199 0.0 102530
06:00+15вюв387472 0.0 1025222
09:00+19вюв595830 0.0 1025548
12:00+17юв61165100 0.1 1025613
15:00+15в51286100 2.4 1023373
18:00+16вюв3128594 0.2 1022366
21:00+16вюв51681100 0.3 1021412
14 мая, пт
пт1400:00+14юв4128697 0.1 1020254
03:00+12юв3590100 0.8 102080
06:00+15ююв258442 0.0 1021156
09:00+19ю3467100 0.0 1020461
12:00+22ююз3460100 0.0 1020832
15:00+23ююз3560100 0.0 10201089
18:00+22ю127271 0.0 101949
21:00+17юв228525 0.1 101911
15 мая, сб
сб1500:00+16юв2287100 0.0 101821
03:00+15ююв2383100 0.0 101935
06:00+17ююв277898 0.0 1018177
09:00+22ю595699 0.0 1018375
12:00+25ю5946100 0.0 1018794
15:00+26ю510475 0.0 10171091
18:00+22ююв411575 0.0 1016406
21:00+17ююв313688 0.0 1015231